C/2021 U5 ( Catalina )

Japanese version
Home page
Updated on May 29, 2022

---------------------------------------------------------------------

* Profile

Discovery Date October 29, 2021
Magnitude 19.1 mag
Discoverer A. R. Gibbs (Catalina Sky Survey)

* Pictures

* Orbital Elements

Epoch 2022 Jan. 21.0 TT = JDT 2459600.5
T 2022 Jan. 26.61324 TT                                 Rudenko
q   2.3632885            (2000.0)            P               Q
z  +0.0046130      Peri.  321.47153     -0.80464835     -0.59297885
 +/-0.0000005      Node   182.75529     +0.56491265     -0.78027201
e   0.9890983      Incl.   39.04931     -0.18279695     +0.19887602
From 418 observations 2021 Oct. 29-2022 May 14, mean residual 0".5.

* Magnitudes Graph

        m1 = 1.5 + 5 log d + 35.0 log r(t - 30)

---------------------------------------------------------------------

The orbital elements are published on M.P.E.C. 2022-K19.
The magnitudes graphs are made with Comet for Windows.

---------------------------------------------------------------------

Copyright(C) Seiichi Yoshida (comet@aerith.net). All rights reserved.